Wind_Speed
13 15 12 9 8 7 6 7 9 11 11 12 13 13 11 10 11 11 12 12 12 12 11 11 11 12 11 11 7 4 8 7 5 6 5 6 8 9 10 11 12 14 14 17 15
13 14 14 10 9 8 7 8 9 12 14 14 13 13 12 11 11 12 13 12 12 11 11 10 12 10 15 11 5 5 5 6 4 4 7 8 10 11 12 11 12 16 16 6 8
12 13 14 11 10 9 8 9 11 14 13 13 13 14 13 12 12 13 13 12 11 11 11 10 12 11 12 4 10 6 7 6 3 5 6 8 9 11 10 12 13 13 13 20 12
12 14 14 11 10 10 10 11 13 13 13 14 14 14 14 14 13 14 13 11 10 10 10 9 12 22 12 7 2 9 2 2 3 5 7 8 8 9 12 13 16 15 17 18 16
14 15 14 12 11 11 11 12 14 14 14 15 15 15 15 14 14 12 10 9 8 8 8 7 8 15 10 7 2 3 3 7 7 8 8 8 8 9 11 11 13 16 17 19 18
14 16 14 11 11 12 13 14 14 15 14 16 16 16 15 13 12 11 10 9 8 9 8 9 10 10 10 7 3 2 5 10 12 11 9 9 10 9 10 13 13 12 12 11 15
14 15 13 12 12 14 14 15 15 15 15 15 15 15 13 12 11 10 9 8 9 8 6 10 9 7 11 9 6 7 13 12 12 13 12 13 17 8 15 17 16 13 14 11 9
15 14 13 13 13 14 16 16 15 14 14 15 14 12 11 10 9 8 7 7 6 6 6 8 7 6 9 12 10 22 19 6 23 12 10 11 13 11 16 14 17 13 13 15 12
15 14 14 14 15 16 16 14 14 13 13 13 12 10 9 9 8 6 5 5 4 3 3 4 4 3 6 13 10 9 5 8 20 18 11 11 8 9 20 15 16 20 13 10 8
15 15 15 15 16 15 14 13 13 12 12 12 12 10 9 8 6 6 4 3 2 0 1 2 1 2 2 10 4 9 9 15 16 10 12 12 11 10 9 20 15 13 18 15 12
14 14 14 14 14 13 12 11 11 11 11 10 8 9 8 7 6 5 4 4 5 5 5 5 5 4 2 6 17 17 15 15 11 14 13 12 13 18 13 8 21 12 16 17 22
13 13 13 13 13 12 11 11 10 8 8 8 8 7 7 7 7 7 7 8 8 8 8 9 8 8 8 9 12 11 11 11 10 16 13 13 14 18 14 17 27 18 16 16 21
13 13 13 13 12 12 11 11 10 10 10 10 10 10 10 10 10 10 10 10 11 10 11 11 7 12 11 10 12 11 12 12 13 13 9 12 14 8 13 21 21 9 17 17 19
14 14 14 13 13 13 13 12 11 10 11 12 13 12 12 12 13 12 12 12 13 12 13 12 11 15 13 10 11 10 8 12 13 11 10 9 10 13 17 21 12 13 11 15 18
16 16 15 15 14 13 12 12 12 10 4 16 10 10 13 14 13 14 13 13 12 12 10 8 10 9 11 11 11 10 11 10 8 11 5 10 10 14 15 20 4 10 25 10 11
14 14 14 14 14 14 14 15 14 11 9 19 13 13 11 11 11 9 11 10 10 9 6 8 12 11 12 13 11 10 10 8 5 12 10 10 5 6 13 3 18 21 22 12 12
12 12 12 12 11 12 13 14 13 9 12 20 15 12 13 11 11 10 10 10 9 5 7 12 12 25 14 10 8 7 8 9 11 15 11 8 2 10 17 27 28 31 14 20 12
12 12 12 13 14 14 14 13 10 3 5 18 13 7 9 8 7 10 10 8 6 6 7 5 8 13 14 6 6 9 9 11 12 14 12 17 18 13 22 18 14 5 12 20 16
9 9 10 12 14 14 13 13 14 5 14 13 9 9 5 10 8 13 8 7 7 10 10 9 2 17 22 23 14 8 8 9 14 11 14 9 23 8 12 5 2 10 16 16 20
9 8 8 9 12 14 14 18 18 27 18 15 9 7 10 11 13 10 10 11 15 26 22 15 18 13 7 18 18 9 6 11 12 15 15 15 17 25 17 18 11 20 13 22 23
11 9 8 8 9 10 13 13 17 14 16 16 14 7 14 8 15 7 11 19 29 33 20 19 19 16 16 15 16 12 21 12 13 13 15 15 17 18 18 20 26 38 23 20 21
13 12 11 9 9 11 13 15 12 16 17 19 20 21 13 14 16 17 10 24 32 20 17 20 21 18 18 23 26 23 18 21 22 17 18 21 19 24 26 28 25 32 29 22 22
14 13 13 12 12 12 15 16 15 15 17 20 19 24 24 25 26 23 21 35 30 21 26 21 21 25 23 17 7 17 21 19 25 24 28 24 19 31 39 44 33 36 34 26 29
15 14 15 14 14 13 15 16 19 20 20 19 21 20 19 21 22 22 24 29 32 25 27 26 26 28 28 26 25 29 23 20 24 17 23 25 23 37 34 19 24 32 25 31 26
18 18 14 17 18 18 19 18 18 18 20 19 20 20 22 22 21 22 24 26 34 36 28 29 32 31 31 31 30 31 38 40 37 37 37 40 38 35 32 42 34 49 32 32 25
17 16 15 14 14 14 14 15 16 18 16 19 19 20 20 21 24 26 28 32 31 36 38 37 32 33 34 31 31 33 33 35 40 41 43 41 43 39 46 38 46 43 45 29 19
15 14 13 12 13 14 19 17 17 17 16 21 19 19 25 25 24 28 31 31 32 34 34 32 33 34 32 32 33 36 31 27 26 28 29 28 26 39 43 52 49 56 60 49 31
Wind_Direction
204 202 199 195 190 184 172 160 158 161 159 152 147 146 148 144 136 133 132 137 137 140 137 129 134 118 109 82 111 358 348 272 270 308 337 353 349 337 338 324 301 300 298 282 294
198 196 194 191 187 183 174 167 162 154 150 150 149 149 151 145 137 133 132 135 136 133 127 122 119 126 65 53 34 270 359 264 258 319 335 346 353 350 348 335 311 325 300 211 313
191 190 186 184 184 183 177 169 163 154 153 151 144 145 145 142 135 131 129 129 128 125 119 126 123 115 84 33 273 309 274 253 283 318 333 342 342 344 344 338 322 329 319 278 8
189 183 179 180 183 181 175 168 160 155 150 145 143 145 142 138 134 126 126 123 123 121 124 138 130 93 77 288 245 333 278 331 329 322 329 333 333 334 335 339 327 330 320 331 340
184 180 175 180 184 179 172 160 156 153 148 145 144 141 137 134 129 125 121 119 117 117 113 120 112 132 138 188 356 333 352 14 7 352 340 343 334 330 323 322 326 330 340 340 332
176 177 177 181 183 173 163 158 155 150 148 144 142 140 135 134 127 125 124 120 110 113 116 100 105 109 118 107 102 83 49 23 4 356 354 334 329 338 327 317 316 323 318 317 321
169 169 172 166 162 162 158 155 151 147 145 144 142 140 136 136 131 129 123 118 112 101 100 99 90 98 108 104 83 60 52 334 7 354 0 325 7 17 342 330 319 322 341 344 333
158 159 161 161 155 152 151 150 149 147 147 147 148 148 144 142 140 140 137 133 121 112 94 92 95 97 96 97 70 27 15 40 310 334 356 357 341 323 350 345 336 341 1 5 10
150 150 152 155 154 150 151 153 154 154 157 160 163 161 162 160 158 158 155 150 140 124 94 88 79 70 79 82 29 294 299 340 297 325 347 345 348 333 330 346 357 342 354 12 39
153 151 151 153 154 156 159 161 163 164 169 175 177 174 176 177 181 178 185 193 200 229 333 355 2 318 47 66 357 303 295 233 283 298 321 333 347 341 317 327 354 6 339 346 2
161 162 162 164 165 169 174 178 179 177 179 180 191 194 191 197 201 212 233 260 284 294 295 298 292 306 282 249 259 249 239 254 289 299 311 323 345 353 333 324 310 12 357 336 356
174 174 174 176 176 176 179 183 185 197 201 207 213 212 218 220 232 246 257 267 275 279 283 289 295 299 272 246 257 254 259 279 303 299 312 321 345 354 326 340 343 331 347 355 356
194 194 195 198 200 204 205 207 213 218 226 228 234 238 246 254 259 261 265 269 271 273 275 276 254 257 288 273 270 267 285 293 292 290 295 349 313 317 311 315 329 351 352 348 355
209 209 209 211 214 214 215 220 224 234 247 242 247 252 261 264 266 274 273 273 273 275 275 279 270 263 283 277 276 275 265 266 290 310 317 299 359 344 282 319 355 2 309 316 344
217 220 221 221 223 225 225 227 230 233 245 258 241 262 267 270 277 265 270 264 267 266 269 272 274 278 271 269 263 269 264 283 325 336 290 21 323 326 313 309 230 278 317 311 329
219 216 217 219 220 224 226 226 230 233 249 256 270 276 270 264 263 266 257 252 253 261 271 273 278 304 275 268 275 276 279 286 311 342 322 298 209 299 283 259 276 302 308 313 314
212 211 211 213 213 214 220 221 220 199 236 283 280 267 255 258 255 256 258 257 261 247 341 346 348 324 313 278 277 285 292 313 325 302 358 301 193 275 278 283 291 304 292 302 312
210 214 222 226 227 226 219 214 206 186 271 268 261 255 249 253 253 265 262 261 254 252 258 279 296 280 290 306 281 237 270 277 289 298 275 312 327 286 284 266 303 303 279 284 299
209 217 222 221 219 217 212 195 157 213 225 250 233 260 235 230 183 279 267 263 313 292 245 227 222 276 275 294 289 262 258 279 284 285 285 282 272 248 222 261 293 239 269 305 312
209 209 210 207 207 212 209 203 187 217 224 217 212 234 214 257 264 240 262 264 234 249 262 246 222 237 272 284 313 325 256 248 248 271 271 267 285 290 297 252 273 272 264 306 302
222 219 218 213 204 202 202 193 234 223 219 213 174 227 226 236 254 243 257 250 271 280 279 263 260 246 236 252 276 287 296 277 270 253 266 281 300 307 308 288 268 270 273 294 295
235 226 229 227 219 216 218 230 232 231 227 222 227 196 199 219 226 239 253 246 262 284 289 276 266 271 250 227 233 244 247 266 288 278 269 253 233 280 295 272 218 248 258 288 282
235 235 233 233 235 229 238 241 230 235 235 235 234 235 231 225 228 234 210 253 265 281 270 276 271 269 266 265 283 280 258 253 254 265 255 249 264 275 267 255 274 271 285 279 279
227 233 231 235 242 244 235 236 238 236 238 242 247 253 253 251 257 261 259 265 282 275 281 277 275 274 274 269 226 246 241 247 241 242 270 237 249 245 286 252 264 270 260 270 250
222 226 232 235 237 236 242 240 238 239 238 241 246 251 253 258 260 263 273 270 285 289 285 283 283 279 275 272 267 251 249 249 243 245 248 252 239 241 254 266 280 254 269 248 241
223 230 234 235 225 225 227 232 236 244 244 247 248 253 262 265 262 268 275 280 278 281 287 291 286 279 278 276 273 271 266 260 263 266 265 264 265 251 242 272 272 275 258 240 250
211 213 220 220 224 227 235 239 244 254 256 258 266 261 267 272 282 273 272 276 278 279 282 282 281 282 280 279 277 275 285 281 276 265 259 261 260 250 247 244 249 251 259 267 277
Height
5871 5873 5875 5877 5878 5879 5880 5881 5882 5884 5885 5888 5890 5891 5892 5894 5895 5896 5897 5898 5899 5899 5901 5902 5903 5904 5906 5909 5911 5910 5907 5908 5910 5908 5907 5907 5907 5906 5905 5905 5903 5901 5897 5895 5896
5871 5873 5875 5877 5878 5879 5881 5882 5883 5884 5886 5888 5890 5892 5893 5894 5895 5897 5898 5899 5900 5901 5902 5904 5904 5906 5909 5913 5914 5911 5908 5909 5909 5907 5906 5905 5905 5904 5904 5903 5901 5900 5895 5878 5892
5870 5872 5874 5876 5878 5879 5881 5882 5883 5885 5887 5889 5890 5892 5893 5895 5897 5898 5899 5900 5902 5903 5904 5906 5905 5907 5912 5918 5913 5910 5911 5909 5908 5907 5906 5905 5904 5904 5904 5903 5901 5902 5898 5893 5890
5870 5872 5874 5876 5878 5879 5881 5882 5884 5886 5888 5890 5892 5893 5895 5896 5900 5899 5900 5902 5903 5904 5905 5906 5906 5908 5915 5917 5914 5910 5910 5909 5908 5907 5906 5906 5906 5905 5904 5903 5899 5900 5897 5894 5894
5869 5872 5874 5876 5878 5879 5881 5883 5885 5887 5889 5891 5893 5894 5896 5898 5900 5901 5902 5904 5905 5905 5906 5906 5906 5908 5913 5914 5915 5911 5910 5909 5908 5907 5907 5906 5906 5905 5905 5903 5901 5896 5894 5894 5895
5869 5872 5874 5876 5877 5879 5882 5884 5886 5888 5890 5892 5894 5896 5898 5901 5901 5903 5904 5905 5906 5907 5907 5907 5908 5908 5909 5912 5912 5911 5910 5910 5909 5908 5907 5904 5901 5902 5903 5902 5901 5900 5899 5898 5896
5870 5872 5874 5876 5878 5880 5883 5885 5887 5889 5892 5894 5896 5898 5900 5902 5903 5904 5905 5907 5907 5908 5908 5908 5909 5909 5909 5911 5913 5913 5911 5914 5910 5909 5908 5903 5904 5899 5900 5900 5898 5898 5897 5896 5896
5871 5873 5875 5878 5880 5882 5884 5887 5889 5891 5893 5896 5897 5899 5901 5903 5904 5905 5906 5907 5908 5909 5909 5910 5910 5910 5910 5912 5913 5912 5915 5917 5912 5910 5909 5906 5902 5900 5898 5900 5897 5895 5895 5894 5893
5872 5874 5876 5879 5881 5883 5886 5888 5891 5893 5895 5897 5899 5901 5903 5904 5905 5906 5907 5908 5909 5909 5910 5911 5911 5911 5911 5912 5914 5916 5920 5917 5915 5910 5909 5908 5907 5906 5902 5899 5897 5893 5892 5892 5892
5873 5875 5878 5880 5883 5885 5887 5889 5891 5894 5896 5898 5899 5902 5904 5904 5905 5906 5907 5908 5909 5910 5910 5911 5911 5911 5911 5913 5920 5919 5917 5918 5914 5913 5908 5907 5905 5904 5903 5898 5897 5896 5892 5890 5892
5874 5876 5879 5881 5884 5886 5888 5890 5893 5895 5896 5898 5900 5901 5902 5904 5905 5906 5907 5908 5908 5910 5910 5910 5911 5910 5913 5918 5916 5914 5914 5914 5913 5911 5907 5905 5904 5904 5903 5901 5898 5896 5894 5893 5890
5875 5877 5879 5882 5884 5886 5889 5891 5893 5896 5896 5897 5899 5901 5902 5904 5905 5906 5907 5908 5908 5908 5908 5909 5909 5910 5910 5910 5911 5911 5911 5911 5910 5911 5907 5905 5904 5904 5903 5902 5900 5895 5893 5893 5890
5874 5877 5879 5881 5884 5886 5888 5890 5892 5894 5895 5897 5898 5900 5901 5903 5904 5905 5906 5906 5906 5906 5906 5907 5909 5911 5909 5908 5908 5909 5909 5909 5909 5906 5906 5904 5905 5905 5904 5900 5899 5896 5895 5893 5891
5873 5875 5878 5880 5883 5885 5887 5889 5891 5892 5894 5896 5896 5898 5900 5900 5901 5902 5903 5904 5903 5904 5904 5904 5905 5906 5906 5906 5906 5907 5908 5908 5906 5905 5904 5903 5903 5904 5899 5900 5896 5896 5897 5894 5891
5871 5873 5876 5878 5880 5882 5886 5887 5889 5891 5893 5891 5894 5896 5897 5898 5899 5899 5899 5900 5900 5900 5902 5902 5903 5902 5902 5903 5903 5904 5904 5904 5904 5903 5902 5903 5906 5899 5900 5897 5896 5896 5894 5894 5892
5869 5871 5874 5876 5878 5880 5882 5884 5886 5890 5891 5889 5892 5892 5894 5894 5895 5895 5896 5897 5897 5898 5899 5900 5899 5901 5900 5899 5900 5901 5901 5902 5903 5901 5900 5904 5906 5909 5899 5897 5894 5894 5891 5891 5890
5867 5869 5871 5873 5876 5877 5879 5881 5885 5888 5890 5889 5888 5889 5890 5891 5892 5892 5893 5894 5896 5897 5897 5898 5898 5897 5897 5897 5898 5899 5900 5901 5903 5902 5901 5898 5903 5905 5899 5895 5894 5892 5889 5886 5888
5865 5867 5869 5871 5872 5874 5877 5880 5884 5888 5893 5888 5886 5888 5889 5889 5890 5890 5891 5892 5893 5894 5896 5901 5904 5900 5897 5896 5898 5900 5902 5904 5903 5903 5906 5902 5901 5901 5896 5892 5890 5888 5887 5884 5885
5863 5865 5866 5868 5869 5872 5875 5878 5882 5887 5890 5886 5886 5886 5887 5891 5894 5890 5890 5893 5895 5894 5896 5898 5902 5898 5896 5896 5894 5896 5898 5901 5901 5901 5902 5904 5898 5892 5883 5888 5887 5884 5883 5882 5882
5862 5863 5865 5865 5867 5870 5873 5874 5874 5877 5880 5881 5887 5888 5891 5891 5891 5891 5892 5893 5893 5888 5889 5891 5892 5894 5896 5891 5891 5892 5893 5895 5897 5897 5896 5896 5892 5885 5889 5887 5884 5876 5882 5881 5879
5860 5862 5863 5864 5866 5868 5871 5873 5873 5874 5876 5879 5883 5888 5889 5892 5890 5890 5893 5889 5886 5884 5884 5886 5886 5888 5889 5891 5892 5893 5888 5890 5892 5892 5892 5893 5892 5882 5881 5883 5882 5867 5873 5876 5876
5857 5860 5861 5863 5865 5866 5868 5868 5870 5871 5873 5875 5877 5878 5882 5887 5887 5887 5889 5880 5879 5880 5880 5879 5877 5879 5880 5881 5882 5883 5886 5887 5886 5887 5887 5885 5888 5879 5876 5872 5863 5861 5865 5870 5871
5854 5857 5859 5860 5862 5863 5865 5866 5867 5868 5870 5871 5873 5873 5874 5875 5877 5878 5880 5872 5874 5875 5872 5875 5876 5873 5874 5877 5881 5874 5879 5878 5880 5880 5879 5881 5886 5872 5869 5867 5860 5856 5863 5866 5866
5852 5854 5856 5857 5859 5860 5861 5862 5863 5865 5866 5868 5869 5869 5870 5871 5871 5871 5871 5868 5863 5868 5867 5866 5867 5867 5866 5866 5869 5866 5867 5869 5869 5869 5871 5869 5873 5870 5851 5844 5847 5848 5851 5857 5859
5847 5849 5852 5854 5854 5856 5857 5858 5860 5861 5862 5863 5864 5864 5864 5864 5865 5865 5864 5863 5858 5854 5859 5859 5856 5856 5856 5856 5857 5858 5858 5857 5857 5858 5858 5860 5860 5860 5852 5838 5837 5843 5841 5850 5851
5843 5846 5848 5849 5851 5852 5854 5855 5856 5856 5857 5858 5858 5859 5859 5859 5859 5858 5857 5854 5854 5850 5847 5846 5847 5846 5845 5846 5846 5845 5847 5848 5848 5846 5845 5846 5846 5850 5853 5836 5825 5828 5831 5840 5846
5840 5842 5844 5846 5848 5849 5849 5851 5851 5852 5854 5852 5853 5854 5852 5852 5854 5851 5849 5848 5846 5843 5842 5841 5839 5837 5837 5836 5835 5835 5838 5836 5835 5834 5834 5835 5839 5829 5830 5828 5823 5819 5821 5827 5837